Terminal Aerodrome Forecast
Issued by NWS

Home | Current Version | Previous Version | Text Only | Print | Product List | Glossary On
Versions: 1 2 3 4 5 6 7 8 9 10 11 12 13 14 15 16 17 18 19 20 21
000
FTUS43 KDTX 250520
TAFMBS
TAF
KMBS 250520Z 2506/2606 03013KT 4SM -SHRA BR BKN008 OVC012
     FM251000 03011KT 4SM -SHRA BR OVC005
     FM251800 02012KT 4SM -SHRA BR OVC007
     FM260000 34008KT P6SM BKN007 BKN012=

USA.gov is the U.S. government's official web portal to all federal, state and local government web resources and services.